FW9103 Weather Reports


time (UTC)temp
F
wind
direction
speed
knots
gust
knots
rain 1hr
in
rain 24hr
in
rain mn
in
humidity
%
barometer
mb
20260508005021 51 236 0.0 0.9 0.00 0.42 0.39 82 1006.3
20260508004021 51 236 0.0 0.9 0.00 0.48 0.39 81 1005.8
20260508003021 52 0.0 0.0 0.00 0.53 0.39 80 1005.8
20260508002021 53 0.0 0.0 0.00 0.56 0.39 79 1005.8
20260508001021 54 0.0 0.0 0.00 0.57 0.39 77 1005.7
20260508000021 55 0.0 0.0 0.00 0.58 0.39 75 1005.8
20260507235021 56 0.0 0.0 0.00 0.59 0.39 73 1005.8
20260507234021 57 251 0.0 1.7 0.00 0.60 0.39 71 1005.8
20260507233021 58 193 0.0 0.9 0.00 0.63 0.39 70 1005.7
20260507232021 60 190 0.0 0.9 0.00 0.67 0.39 67 1005.5
20260507231021 61 208 0.0 0.9 0.00 0.70 0.39 65 1005.4
20260507230022 62 233 0.0 1.7 0.00 0.73 0.39 64 1005.4
20260507225029 62 258 0.0 3.5 0.00 0.73 0.39 65 1005.4
20260507224022 63 273 0.9 2.6 0.00 0.73 0.39 64 1005.3
20260507223022 63 247 0.0 1.7 0.00 0.73 0.39 68 1005.3
20260507222021 63 284 0.9 2.6 0.00 0.73 0.39 69 1005.5
20260507221022 64 239 0.9 2.6 0.00 0.73 0.39 68 1005.4
20260507220021 64 160 0.9 1.7 0.00 0.73 0.39 69 1005.4
20260507215022 64 166 0.9 1.7 0.00 0.73 0.39 70 1005.3
20260507214021 62 188 0.9 3.5 0.00 0.73 0.39 72 1005.3
20260507213022 62 152 0.9 2.6 0.00 0.73 0.39 71 1005.3
20260507212022 62 291 0.9 2.6 0.00 0.73 0.39 74 1005.1
20260507211022 60 294 1.7 4.3 0.00 0.73 0.39 75 1005.2
20260507210021 61 229 0.9 2.6 0.00 0.73 0.39 73 1005.2
20260507205022 62 188 0.9 2.6 0.00 0.73 0.39 72 1005.0
20260507204022 63 248 0.9 3.5 0.00 0.73 0.39 70 1005.0
20260507203021 63 222 1.7 5.2 0.00 0.73 0.39 69 1004.7
20260507202021 63 241 0.9 2.6 0.00 0.73 0.39 70 1004.8
20260507201022 64 154 1.7 2.6 0.00 0.73 0.39 69 1004.8
20260507200022 64 173 1.7 3.5 0.00 0.73 0.39 69 1004.9
20260507195022 63 175 0.9 3.5 0.00 0.73 0.39 71 1005.1
20260507194022 63 170 1.7 4.3 0.00 0.73 0.39 68 1005.3
20260507193022 62 168 1.7 4.3 0.00 0.73 0.39 68 1005.4
20260507192022 62 156 1.7 5.2 0.00 0.73 0.39 68 1005.6
20260507191022 62 172 1.7 3.5 0.00 0.73 0.39 68 1005.8
20260507190022 62 294 1.7 4.3 0.00 0.73 0.39 57 1005.9
20260507185022 62 317 1.7 4.3 0.00 0.73 0.39 58 1005.9
20260507184022 61 330 1.7 4.3 0.00 0.73 0.39 57 1006.1
20260507183022 60 301 1.7 5.2 0.00 0.73 0.39 62 1006.1
20260507182022 61 317 1.7 3.5 0.00 0.73 0.39 63 1006.2
20260507181022 60 286 0.9 3.5 0.00 0.73 0.39 61 1006.3
20260507180021 59 324 1.7 3.5 0.00 0.73 0.39 68 1006.6
20260507175022 58 319 0.9 2.6 0.00 0.73 0.39 74 1006.7
20260507174022 57 335 1.7 5.2 0.00 0.73 0.39 74 1006.7
20260507173022 57 308 1.7 4.3 0.00 0.73 0.39 75 1006.6
20260507172022 57 298 0.9 5.2 0.00 0.73 0.39 77 1006.6
20260507171022 57 285 1.7 7.0 0.00 0.73 0.39 76 1006.9
20260507170022 56 302 1.7 6.1 0.00 0.73 0.39 77 1007.1
20260507165022 55 311 2.6 5.2 0.00 0.73 0.39 79 1007.0
20260507164022 55 312 2.6 8.7 0.00 0.73 0.39 78 1007.1
20260507163022 55 314 1.7 5.2 0.00 0.73 0.39 81 1007.2
20260507162022 55 305 2.6 7.8 0.00 0.73 0.39 82 1007.2
20260507161022 55 355 1.7 6.1 0.00 0.73 0.39 82 1007.2
20260507160022 54 310 2.6 7.0 0.00 0.73 0.39 83 1007.4
20260507155022 54 307 2.6 8.7 0.00 0.73 0.39 85 1007.5
20260507154022 53 307 2.6 7.0 0.00 0.73 0.39 87 1007.6
20260507153022 52 297 2.6 8.7 0.00 0.73 0.39 88 1007.6
20260507152022 52 296 1.7 6.1 0.00 0.73 0.39 88 1007.5
20260507151022 51 306 1.7 5.2 0.00 0.73 0.39 89 1007.4
20260507150022 51 292 0.9 6.1 0.00 0.73 0.39 90 1007.6
20260507145022 51 317 2.6 7.8 0.00 0.73 0.39 91 1007.6
20260507144027 50 305 1.7 6.1 0.01 0.73 0.39 92 1007.6
20260507143023 50 297 1.7 5.2 0.01 0.73 0.39 93 1007.8
20260507142022 50 308 1.7 5.2 0.01 0.73 0.39 93 1007.6
20260507141022 49 306 2.6 7.8 0.01 0.73 0.39 93 1007.6
20260507140022 49 291 1.7 7.8 0.01 0.73 0.39 93 1007.5
20260507135022 49 333 1.7 5.2 0.02 0.73 0.39 94 1007.4
20260507134022 48 317 0.9 2.6 0.01 0.72 0.38 94 1007.1
20260507133022 48 6 0.0 1.7 0.02 0.72 0.38 94 1007.2
20260507132022 48 314 1.7 4.3 0.02 0.72 0.38 94 1007.7
20260507131022 48 299 1.7 3.5 0.02 0.72 0.38 95 1007.7
20260507130023 48 303 0.9 3.5 0.02 0.72 0.38 95 1007.6
20260507125022 48 310 0.9 2.6 0.03 0.71 0.37 95 1007.5
20260507124023 48 256 0.0 1.7 0.03 0.71 0.37 94 1007.3
20260507123022 48 305 0.9 3.5 0.02 0.70 0.36 94 1007.7
20260507122022 48 322 0.9 5.2 0.02 0.70 0.36 95 1007.5
20260507121022 48 2 0.9 3.5 0.04 0.70 0.36 94 1007.3
20260507120022 49 321 1.7 7.0 0.04 0.70 0.36 94 1007.7
20260507115022 49 29 0.9 4.3 0.02 0.68 0.34 94 1007.9
20260507114022 49 309 1.7 5.2 0.02 0.68 0.34 95 1007.0
20260507113023 49 2 0.9 4.3 0.02 0.68 0.34 95 1007.0
20260507112022 49 314 1.7 5.2 0.02 0.68 0.34 94 1007.0
20260507111022 49 334 2.6 7.0 0.02 0.66 0.32 95 1007.2
20260507110022 50 339 1.7 7.0 0.03 0.66 0.32 95 1007.0
20260507105022 50 356 1.7 6.1 0.15 0.66 0.32 96 1007.0
20260507104022 50 339 1.7 5.2 0.20 0.66 0.32 96 1006.5
20260507103022 50 339 1.7 5.2 0.23 0.66 0.32 96 1006.8
20260507102022 50 315 1.7 5.2 0.23 0.66 0.32 97 1006.7
20260507101022 51 320 0.9 6.1 0.21 0.64 0.30 97 1006.5
20260507100022 51 340 1.7 4.3 0.27 0.63 0.29 97 1005.7
20260507095022 51 302 2.6 9.6 0.16 0.51 0.17 96 1006.6
20260507094022 52 314 1.7 6.1 0.12 0.46 0.12 97 1005.5
20260507093022 53 342 2.6 6.1 0.09 0.43 0.09 97 1005.8
20260507092023 54 302 2.6 8.7 0.09 0.43 0.09 97 1006.0
20260507091022 54 296 1.7 7.0 0.09 0.43 0.09 97 1006.0
20260507090022 54 277 0.9 3.5 0.02 0.36 0.02 97 1006.2
20260507085022 54 274 0.9 4.3 0.01 0.35 0.01 97 1006.0
20260507084022 55 252 0.0 0.9 0.00 0.34 0.00 97 1005.2
20260507083022 55 0.0 0.0 0.00 0.34 0.00 97 1005.1
20260507082022 55 191 0.0 0.9 0.00 0.34 0.00 97 1005.1
20260507081022 55 190 0.0 0.9 0.00 0.34 0.00 97 1005.1
20260507080022 55 236 0.0 0.9 0.00 0.34 0.00 97 1005.2
20260507075022 55 235 0.0 1.7 0.00 0.34 0.00 97 1005.3
20260507074022 56 238 0.0 0.9 0.00 0.34 0.00 97 1005.4
20260507073022 56 245 0.0 0.9 0.00 0.34 0.00 97 1005.5
20260507072022 56 321 0.0 2.6 0.00 0.34 0.00 97 1005.8
20260507071022 56 249 0.0 0.9 0.00 0.34 0.00 97 1005.6
20260507070022 56 258 0.0 1.7 0.00 0.34 0.00 97 1005.5
20260507065022 56 295 0.9 4.3 0.00 0.34 0.00 97 1005.5
20260507064022 56 297 0.9 3.5 0.00 0.34 0.00 97 1005.6
20260507063022 56 297 1.7 3.5 0.00 0.34 0.00 97 1005.8
20260507062022 56 291 0.9 4.3 0.00 0.34 0.00 97 1005.7
20260507061022 56 240 0.9 2.6 0.00 0.34 0.00 97 1005.6
20260507060022 56 289 0.9 5.2 0.00 0.34 0.00 97 1005.7
20260507055022 56 299 0.9 3.5 0.00 0.34 0.00 97 1005.9
20260507054022 56 92 1.7 4.3 0.00 0.34 0.00 97 1006.1
20260507053022 56 283 0.9 5.2 0.00 0.34 0.00 97 1006.4
20260507052022 56 286 0.9 3.5 0.00 0.34 0.00 97 1006.5
20260507051022 56 275 0.9 6.1 0.00 0.34 0.00 97 1006.3
20260507050022 57 289 0.9 3.5 0.00 0.34 0.00 97 1006.4
20260507045023 57 272 0.9 4.3 0.00 0.34 0.00 97 1006.5
20260507044022 57 235 0.9 3.5 0.00 0.34 0.00 97 1006.6
20260507043022 57 191 0.9 3.5 0.00 0.34 0.00 97 1006.8
20260507042022 57 297 0.9 3.5 0.00 0.34 0.00 97 1006.9
20260507041022 57 306 1.7 3.5 0.00 0.34 0.00 97 1006.7
20260507040029 57 291 1.7 5.2 0.00 0.34 0.00 97 1006.8
20260507035022 57 305 1.7 7.0 0.00 0.34 0.34 97 1007.0
20260507034022 57 270 1.7 13.9 0.00 0.34 0.34 97 1006.9
20260507033022 57 305 1.7 8.7 0.00 0.34 0.34 97 1006.6
20260507032022 57 162 1.7 6.1 0.00 0.34 0.34 97 1006.5
20260507031022 57 263 0.9 3.5 0.00 0.34 0.34 97 1006.6
20260507030022 57 246 1.7 10.4 0.00 0.34 0.34 97 1006.8
20260507025023 57 302 1.7 5.2 0.00 0.34 0.34 97 1007.1
20260507024023 57 185 2.6 5.2 0.00 0.34 0.34 97 1007.3
20260507023023 57 177 1.7 4.3 0.00 0.34 0.34 97 1007.5
20260507022022 57 292 1.7 4.3 0.01 0.34 0.34 97 1007.7
20260507021022 57 259 1.7 6.1 0.01 0.34 0.34 96 1007.6
20260507020022 57 285 1.7 5.2 0.01 0.34 0.34 96 1007.9
20260507015022 57 197 1.7 6.1 0.03 0.34 0.34 96 1008.2
20260507014022 57 224 1.7 6.1 0.09 0.34 0.34 97 1008.1
20260507013022 57 295 2.6 10.4 0.14 0.34 0.34 97 1008.1
20260507012022 57 138 1.7 6.1 0.16 0.33 0.33 97 1008.3
20260507011022 57 159 1.7 5.2 0.17 0.33 0.33 96 1008.3
20260507010022 57 222 1.7 4.3 0.18 0.33 0.33 96 1008.4